Location: Mapua
(41.2500°S, 173.1000°E)
Time: 14:45:57
(UTC+12:00)

ISS - Visible Passes

Search period start: 18 May 2021 00:00
Search period end: 28 May 2021 00:00
Orbit: 417 x 422 km, 51.6° (Epoch: 17 May)

Date Brightness Start Highest point End Pass type
(mag) Time Alt. Az. Time Alt. Az. Time Alt. Az.
19 May 0.0 06:28:38 10° NE 06:29:14 10° NE 06:29:50 10° ENE visible
21 May -1.6 06:27:43 10° NNW 06:30:44 30° NE 06:33:48 10° ESE visible
22 May -0.9 05:41:01 10° N 05:43:25 18° NE 05:45:50 10° E visible
23 May -0.4 04:55:41 10° NE 04:56:10 10° NE 04:56:50 10° ENE visible
23 May -3.7 06:29:01 10° NW 06:32:26 88° N 06:35:55 10° SE visible
24 May -3.0 05:44:15 41° N 05:45:01 51° NE 05:48:23 10° ESE visible
25 May -0.9 04:59:28 18° E 04:59:28 18° E 05:00:42 10° ESE visible
25 May -3.0 06:32:28 20° W 06:34:23 37° SSW 06:37:38 10° SE visible
26 May -3.1 05:47:27 47° SSE 05:47:27 47° SSE 05:50:14 10° SE visible
27 May -0.7 05:02:16 14° SE 05:02:16 14° SE 05:02:47 10° SE visible
27 May -2.1 06:35:15 18° SW 06:36:31 21° SSW 06:39:15 10° SE visible
